Theta_e
325 324 323 322 322 322 322 321 322 322 324 322 324 322 320 318 316 313 312 312 311 310 310 309 308 307 307 305 303 301 299 299 298 298 298 298 298 302 309 310 313 316 318 320 321 323 324 325 326 325 325 325 324 325 325 324 325 325 325 325 326 326 325 325 324 325 325 325 326 327 327 327 328 328 328 327 325 325 325 324 323 324 324 324 324
322 322 321 320 319 319 319 319 319 320 320 319 320 320 319 319 317 315 314 313 312 309 309 309 309 308 306 303 301 300 300 299 299 298 298 296 295 295 304 306 307 311 314 316 318 320 322 324 325 324 325 324 324 324 324 324 324 324 324 325 324 324 325 324 323 323 323 323 323 323 324 325 325 326 327 327 327 327 327 326 324 323 323 323 323
320 319 319 317 317 317 317 317 317 318 318 317 318 317 317 316 315 314 312 310 309 309 309 308 308 308 305 303 301 301 300 300 300 299 297 296 295 294 295 301 304 305 308 312 314 316 318 321 324 323 323 323 324 324 323 323 324 323 323 323 324 324 323 323 323 323 322 322 322 322 322 323 323 324 324 325 325 326 327 327 327 327 326 324 323
318 317 315 315 314 314 314 313 313 314 315 315 314 313 312 311 311 310 309 306 305 306 307 307 306 306 305 303 302 300 300 300 299 299 298 296 295 294 293 294 299 301 303 307 310 312 313 315 318 320 321 321 323 324 323 323 322 322 321 322 323 323 322 322 322 322 322 321 321 321 321 322 322 322 323 323 324 324 324 325 326 326 326 327 326
315 314 313 313 312 311 310 310 310 310 310 309 309 309 308 307 305 306 304 304 304 304 306 306 305 305 304 302 301 300 300 299 298 297 297 296 295 294 293 293 291 296 298 301 305 308 310 311 313 316 317 318 319 321 321 320 320 321 321 322 322 322 321 320 319 319 319 319 319 319 319 319 320 321 322 323 323 323 324 324 325 325 325 326 326
312 311 311 310 309 309 308 307 307 305 304 303 302 302 302 302 302 302 302 301 302 303 305 305 305 304 303 301 300 299 298 298 297 296 296 294 294 293 292 291 291 290 290 295 298 303 306 308 308 311 313 314 315 316 319 320 319 319 319 321 321 319 318 317 317 317 317 318 317 317 316 317 317 318 318 318 318 320 321 321 323 324 325 325 325
308 307 307 307 306 306 306 305 304 303 301 301 300 300 300 299 300 299 299 300 300 302 303 304 303 302 302 300 298 297 297 296 295 294 293 292 292 291 291 291 290 290 289 288 292 296 302 304 306 308 310 311 312 313 314 317 318 318 319 318 318 317 317 316 316 316 316 316 316 316 316 315 316 316 316 316 317 317 318 319 319 321 324 325 325
304 305 304 304 303 303 303 303 304 304 299 298 297 296 295 294 294 297 298 297 300 300 301 301 300 300 299 298 297 296 294 292 291 290 289 289 289 290 290 289 289 289 291 287 287 290 297 300 302 304 307 308 310 310 311 313 313 313 313 316 316 315 315 315 314 315 315 314 313 314 314 314 314 315 315 316 316 316 316 317 317 321 321 319 321
301 302 302 301 301 300 300 300 300 298 297 296 294 294 293 292 291 291 294 295 297 297 297 297 297 297 297 296 295 293 291 289 288 287 288 286 286 287 288 288 289 290 287 287 286 286 291 296 297 299 301 304 306 307 308 309 311 312 313 315 316 315 315 313 313 313 313 313 313 312 312 313 314 314 314 314 315 315 315 315 316 317 317 318 319
298 298 298 298 298 298 297 297 297 296 294 293 292 291 290 290 288 288 290 293 294 294 294 294 294 294 293 292 292 291 290 288 287 287 286 285 285 285 285 286 286 285 285 285 285 286 285 289 293 293 294 300 303 305 306 306 308 311 312 314 316 315 312 312 312 312 312 312 312 312 312 312 312 312 313 313 314 314 314 314 315 315 316 317 318
295 296 295 295 295 294 294 294 293 293 291 291 290 289 288 288 289 288 288 289 291 292 292 292 291 291 290 289 290 290 289 289 287 285 284 284 286 287 286 284 284 284 284 284 284 285 285 284 285 284 286 296 300 302 304 305 306 308 310 312 314 315 314 312 312 312 311 311 311 311 312 312 312 312 312 313 313 313 313 314 314 315 315 315 316
293 293 293 292 292 292 291 292 291 291 290 288 287 286 286 287 287 289 289 288 287 287 289 291 289 289 289 288 287 287 287 287 286 286 284 283 283 284 283 284 283 283 283 283 283 284 284 284 286 284 285 289 295 297 300 301 302 305 307 309 312 312 311 311 311 311 310 310 310 310 311 311 311 312 312 313 313 313 312 313 313 314 314 315 315
293 292 291 291 290 290 290 290 290 289 288 286 286 286 286 285 285 287 288 288 285 284 284 287 290 288 289 288 288 287 287 285 284 284 284 282 282 282 283 283 283 282 282 282 282 283 283 283 283 284 284 284 286 291 294 296 297 302 305 306 309 310 310 310 310 309 309 309 309 310 310 310 311 311 311 312 312 313 313 313 313 313 313 314 314
291 291 291 290 289 289 289 288 287 286 286 286 285 286 284 284 285 285 284 284 282 283 284 287 289 286 286 286 287 287 287 285 284 283 282 282 282 282 282 282 282 282 282 282 282 282 282 282 283 283 284 284 284 284 286 287 290 298 302 304 307 309 309 309 309 309 308 307 308 308 307 309 310 310 311 311 311 312 312 312 313 313 313 313 313
289 290 289 288 287 286 286 286 285 286 285 284 284 283 283 283 283 284 283 283 283 284 283 284 286 284 284 286 284 283 287 281 282 283 282 281 282 282 282 281 281 281 281 281 281 281 282 282 282 282 283 283 284 284 284 287 288 292 297 299 301 305 306 308 308 307 307 306 307 307 307 308 309 310 310 310 310 311 311 311 311 311 312 313 313
287 287 286 286 286 285 285 285 284 284 284 284 283 283 283 282 282 283 283 281 280 282 283 283 282 286 287 284 283 281 278 277 278 280 280 280 281 280 281 280 280 281 280 280 280 280 281 281 281 282 282 283 283 283 283 284 287 289 291 294 296 300 302 305 306 306 307 307 306 307 307 307 308 308 309 309 309 310 310 310 310 311 311 311 312
285 285 285 285 285 284 284 284 284 284 284 283 283 282 282 282 282 282 281 281 280 279 282 282 282 282 283 279 278 277 278 276 276 278 278 278 279 279 281 279 279 280 279 279 280 280 281 281 281 281 281 282 282 282 282 282 283 285 287 290 294 296 299 303 305 305 305 305 305 305 306 306 306 307 307 308 308 308 309 309 309 309 310 310 311
284 284 285 285 284 284 284 284 283 283 283 283 282 282 282 282 282 281 281 281 282 280 280 282 282 282 281 279 279 278 277 276 275 276 276 277 277 278 278 279 279 279 279 280 280 280 281 280 280 280 281 281 281 281 281 281 284 283 286 289 296 297 297 299 302 303 304 304 303 304 305 305 305 306 306 306 307 307 307 308 308 308 309 309 310
283 283 283 284 283 283 283 283 283 283 283 283 282 282 282 282 282 282 282 284 281 280 280 280 280 282 281 280 280 278 277 275 276 275 273 274 276 277 277 279 278 278 279 279 279 279 279 280 280 280 280 281 281 280 280 280 283 285 290 293 297 296 296 296 296 298 301 302 302 303 303 305 305 306 305 305 305 305 306 307 307 307 308 308 309
283 283 283 283 283 283 283 283 283 282 283 282 282 282 282 283 282 282 282 281 280 280 278 277 278 279 281 280 280 279 278 278 275 276 275 274 274 276 276 279 278 276 277 278 278 278 278 279 279 279 279 280 280 279 279 279 280 280 284 292 295 295 295 295 294 294 296 298 301 302 304 305 305 305 304 304 304 305 305 306 306 306 307 307 308
282 283 282 283 283 282 282 282 282 282 283 282 281 281 281 281 281 281 281 280 280 279 279 277 278 278 278 278 277 277 277 277 276 276 276 274 273 274 275 276 276 276 277 277 277 278 278 278 280 279 280 279 279 279 279 279 279 280 285 290 293 295 295 294 293 293 293 294 297 300 303 304 304 304 304 304 304 304 305 305 305 306 306 307 307
282 282 282 282 282 282 282 282 282 282 282 281 281 280 280 280 280 280 280 280 279 279 278 277 277 277 277 277 277 276 275 276 276 274 274 274 274 274 274 274 274 276 277 277 278 277 277 278 277 277 278 278 278 278 278 278 279 280 284 287 290 292 292 292 292 293 292 293 295 296 298 300 301 302 303 303 303 303 304 304 304 305 305 306 306
281 281 281 282 282 282 282 281 282 282 281 280 280 280 280 280 279 279 279 279 278 279 279 278 278 278 277 277 277 277 277 276 275 275 274 274 273 273 273 274 274 274 275 277 279 277 277 276 276 277 277 277 277 277 278 278 280 282 285 285 286 287 289 290 291 291 292 294 294 295 295 296 297 298 300 301 302 303 303 304 303 304 304 304 305
280 280 280 280 281 280 280 280 280 280 279 279 279 279 279 279 279 278 278 278 278 279 278 277 277 277 276 277 276 277 277 277 276 276 276 275 274 273 273 274 273 274 276 276 276 276 276 276 276 276 276 276 277 278 278 277 278 283 282 283 284 286 288 289 290 290 292 293 293 294 294 294 294 295 296 298 300 302 302 302 302 302 303 303 303
279 279 279 279 280 279 279 279 279 279 279 279 279 279 278 278 278 278 277 277 277 277 277 276 277 277 276 276 276 276 276 276 277 276 276 275 275 272 273 274 272 273 273 274 275 276 275 275 276 275 275 275 277 276 277 277 277 280 283 281 283 283 285 286 288 290 291 291 292 292 292 293 293 293 295 296 298 299 300 300 301 301 302 302 302
279 279 279 279 279 279 279 279 279 279 279 278 278 278 278 278 277 277 277 277 277 277 276 276 276 276 276 275 275 275 275 276 275 276 275 274 274 273 273 273 273 272 273 273 273 275 273 275 275 275 275 275 275 276 276 276 276 280 282 279 278 281 283 284 287 289 291 291 291 291 291 290 291 292 293 295 296 296 298 299 300 300 300 300 300
279 279 279 279 279 279 279 279 279 278 278 278 278 277 277 277 277 277 277 276 276 276 276 276 276 275 275 275 275 275 275 275 275 275 276 276 275 274 273 272 271 272 271 272 272 273 273 273 274 274 275 276 275 275 276 276 277 281 280 276 275 279 281 283 287 290 289 289 289 289 289 289 289 291 291 292 294 294 296 297 297 298 298 298 298
279 279 279 279 279 278 278 278 277 277 277 277 277 277 276 277 276 276 276 277 276 275 275 275 275 275 274 275 275 274 275 275 275 274 274 275 275 275 274 273 272 269 271 270 271 272 273 272 273 273 273 274 275 275 277 276 275 280 279 275 274 275 279 283 287 288 288 287 288 288 288 288 289 290 290 290 291 292 292 293 293 293 293 293 293
279 279 278 278 278 278 277 277 277 277 276 276 276 276 276 276 275 275 275 275 275 275 275 275 274 274 274 274 274 274 274 275 274 275 274 274 274 274 274 273 273 271 268 268 271 270 271 274 273 273 274 274 274 275 274 274 276 278 275 275 274 274 278 283 286 286 287 287 287 287 287 288 288 288 289 289 290 290 290 291 291 291 292 292 293
279 279 278 278 278 278 277 276 276 276 276 276 275 275 275 275 275 275 275 275 275 275 275 274 274 274 274 274 274 274 274 274 274 274 273 273 274 274 274 273 273 270 271 270 270 272 271 273 273 272 273 273 274 274 275 274 277 277 275 274 274 274 280 282 282 283 284 287 287 286 288 288 288 288 288 288 289 290 290 290 290 290 291 292 293
278 278 277 277 277 276 276 276 276 275 275 275 275 275 275 274 274 274 274 274 274 274 274 274 274 274 273 273 273 273 273 273 273 273 273 273 273 273 273 273 274 272 271 271 268 271 272 270 272 273 273 272 274 273 274 274 276 276 274 273 273 277 279 277 279 281 283 284 284 285 287 287 287 288 288 288 289 289 289 289 289 290 290 291 292
277 277 277 276 276 276 275 275 275 275 275 275 275 274 274 274 274 274 274 274 273 273 273 274 274 273 273 273 273 273 273 273 272 273 272 273 273 273 273 273 272 272 272 271 269 270 273 272 272 272 273 272 273 272 273 273 275 276 273 273 274 277 274 274 277 279 281 282 284 285 286 287 287 287 287 287 287 288 288 288 289 289 289 289 291
277 277 276 276 276 276 275 275 275 275 274 274 274 274 273 273 273 273 273 273 273 272 273 273 273 273 273 272 272 272 272 272 272 272 272 272 272 273 273 272 272 271 271 269 268 268 271 272 271 272 272 273 272 273 272 272 272 273 275 273 273 273 273 273 274 277 279 281 283 284 285 286 287 287 287 287 287 287 287 288 288 288 288 289 289
277 276 276 276 276 275 275 275 275 275 275 274 273 273 273 273 272 273 273 272 272 272 272 272 272 273 272 271 272 271 272 271 271 271 271 271 271 270 271 271 271 271 271 270 268 268 268 271 271 272 271 273 271 273 272 271 272 273 272 273 273 273 273 273 273 274 279 281 282 284 285 286 287 287 287 286 287 287 288 288 287 287 288 288 288
276 276 276 275 275 275 274 274 274 274 273 273 272 272 272 272 272 272 272 272 272 271 271 271 271 271 271 271 271 271 271 271 271 271 271 271 271 270 270 271 270 271 271 271 269 267 268 269 271 270 271 272 271 271 272 272 273 273 272 272 273 274 274 274 274 274 278 281 283 284 285 285 285 286 286 286 286 286 286 286 287 286 287 287 287
276 275 275 275 275 274 274 273 273 273 272 272 272 272 272 272 272 272 272 272 271 271 271 271 271 270 270 270 270 270 270 270 270 270 271 271 270 270 270 270 271 270 271 270 271 270 269 268 269 270 271 271 271 272 273 273 272 272 273 273 273 273 274 274 274 274 277 281 283 283 284 284 284 284 285 285 285 285 286 286 286 286 286 286 285
276 276 276 275 275 274 274 273 273 272 272 272 272 272 272 272 272 272 272 271 271 271 271 271 273 270 270 269 270 270 269 269 269 270 270 270 270 270 270 270 270 271 271 271 270 270 269 268 268 270 272 271 272 272 272 272 272 273 273 273 273 274 274 274 275 276 279 281 281 281 282 282 283 283 284 284 285 285 285 285 285 285 285 285 284
276 276 276 275 275 275 274 273 273 272 272 272 272 272 271 272 272 272 271 271 271 271 270 270 270 270 269 269 270 269 269 268 268 269 269 269 269 269 269 269 270 270 271 270 271 270 270 269 270 269 271 270 270 272 272 272 272 271 272 273 274 275 274 274 275 276 276 276 276 277 279 280 281 282 283 283 284 284 284 284 284 285 284 283 283
276 276 275 274 274 274 274 273 272 272 272 271 271 272 272 272 272 272 271 271 271 271 270 270 269 269 269 269 269 269 269 269 269 268 268 268 269 268 269 269 271 270 270 270 270 270 270 270 270 270 270 271 272 270 273 274 274 273 272 272 272 274 274 274 274 276 277 277 278 280 280 280 281 280 281 282 283 283 283 283 283 283 282 282 282
276 276 275 275 274 274 274 273 272 271 271 271 272 272 272 271 271 271 271 271 271 270 270 269 269 269 269 269 269 269 269 269 269 269 269 269 269 269 270 270 269 270 268 269 269 270 269 269 270 270 271 271 271 273 274 274 273 273 274 273 271 272 273 274 275 274 275 276 275 275 277 278 277 278 279 279 280 281 281 281 281 281 280 281 282
276 276 276 275 274 273 273 273 272 272 272 271 272 272 271 271 272 271 271 270 270 270 269 269 269 268 268 268 269 269 270 274 276 276 275 275 271 267 269 269 268 268 268 267 268 269 270 270 270 271 271 271 271 272 272 272 271 271 272 273 272 273 273 272 273 274 274 273 273 273 273 273 273 273 273 273 274 277 277 279 279 279 280 281 282
275 275 275 274 274 273 272 272 272 271 271 271 273 276 275 272 272 271 271 270 270 270 269 269 269 269 268 268 269 274 274 274 274 274 275 275 276 274 270 269 268 267 268 268 269 269 270 270 270 271 270 270 272 272 272 272 272 273 272 272 270 271 271 270 271 272 273 272 271 269 271 273 272 272 272 272 274 275 275 275 275 277 280 282 282
274 274 274 274 273 272 272 271 271 271 271 271 276 279 278 277 272 271 271 270 270 270 270 270 269 270 269 269 268 271 272 272 271 273 274 275 274 275 275 276 275 273 271 270 271 272 271 270 271 271 271 271 272 272 271 271 272 272 271 271 270 269 268 266 265 269 273 271 269 268 269 271 272 271 272 273 274 274 275 275 279 280 280 282 282
274 274 273 273 273 272 272 272 272 271 271 274 279 280 280 279 276 273 271 270 271 271 271 270 270 270 270 269 269 269 268 268 269 270 271 272 273 274 275 275 275 276 277 275 273 272 272 271 271 272 271 271 270 271 271 271 270 270 270 269 269 268 267 266 267 266 270 271 268 267 268 272 273 272 272 273 274 275 275 278 280 280 281 282 281
273 273 274 273 272 272 272 272 271 272 271 277 281 281 281 280 278 274 271 271 271 271 271 271 270 270 270 269 268 269 268 271 270 268 267 267 271 274 274 275 276 277 277 278 278 276 275 273 272 271 271 271 270 270 271 271 271 269 268 268 268 268 267 267 266 267 268 270 269 268 267 269 271 270 270 271 272 272 272 275 278 280 280 281 281
273 273 273 273 273 272 272 272 271 271 270 276 281 282 282 281 281 277 273 272 272 271 271 271 271 271 270 269 267 267 267 267 267 268 268 267 267 268 269 269 270 273 276 277 277 277 276 274 272 270 271 272 270 270 271 272 269 268 267 266 267 267 266 266 267 267 269 270 267 266 264 266 269 268 267 269 271 271 271 275 278 279 279 280 280
273 273 273 273 272 272 272 272 271 271 270 277 281 282 282 282 282 280 274 274 272 272 271 271 271 271 270 268 267 267 267 267 268 269 267 268 268 269 270 270 271 272 273 273 274 275 274 273 272 272 272 272 271 271 271 271 270 269 269 268 268 267 267 267 266 266 267 268 267 265 262 266 268 266 266 268 269 270 271 274 276 277 278 279 279
274 274 273 273 272 272 272 271 271 270 270 278 281 282 282 282 283 278 274 274 272 272 271 271 271 270 268 268 267 267 267 267 270 274 274 273 272 271 271 272 273 273 274 276 277 276 275 274 273 272 272 272 274 272 272 271 270 270 270 268 266 265 263 262 261 263 263 266 267 266 264 264 266 266 266 268 269 268 269 269 274 277 278 279 279
273 273 273 272 272 272 271 271 270 271 270 276 280 281 282 282 281 275 274 273 272 271 270 270 269 269 268 268 268 267 267 267 271 274 275 276 274 273 273 272 272 271 272 273 274 275 275 275 274 274 274 274 274 274 273 273 272 271 266 263 261 262 262 260 261 262 262 265 266 266 264 263 266 266 266 267 267 267 268 269 270 275 277 278 278
273 273 273 272 272 272 271 270 271 271 270 273 280 281 281 282 280 273 273 272 272 270 269 269 268 268 268 271 270 268 268 268 273 275 276 275 274 274 273 271 270 269 270 270 267 269 272 271 271 271 271 271 271 271 270 271 272 271 264 260 263 264 262 262 260 261 262 264 265 267 264 264 266 267 265 266 267 267 268 269 270 271 274 275 276
274 273 272 272 271 271 270 270 272 271 270 272 279 280 281 281 279 273 273 271 270 269 268 267 268 267 267 270 272 272 270 270 274 275 276 276 275 274 272 270 269 268 268 268 266 266 267 266 264 263 263 266 265 264 265 269 270 269 266 265 265 263 262 262 262 261 260 261 265 268 264 264 265 265 265 263 262 265 267 268 268 269 270 271 272
Wind_Speed
5 5 6 6 6 5 5 4 5 4 4 4 3 4 5 6 6 5 5 6 6 6 6 6 7 6 8 8 8 8 8 8 8 9 8 8 10 15 21 22 22 22 22 23 22 22 21 21 20 21 21 20 19 20 19 20 21 21 21 21 22 22 22 22 21 22 23 23 22 23 21 19 17 17 17 15 12 12 13 13 13 13 13 15 16
6 5 7 7 6 5 6 5 6 4 5 5 4 5 5 6 6 5 6 6 6 5 6 6 7 7 7 9 8 7 8 8 9 8 8 8 9 12 21 21 22 23 23 23 23 23 23 22 22 21 20 21 20 20 20 20 21 21 21 21 21 21 21 22 22 22 21 21 22 22 23 24 22 20 18 18 17 18 17 16 14 13 12 13 14
6 6 6 7 6 6 6 5 6 5 5 6 5 6 6 7 7 6 5 5 6 5 6 7 7 7 7 8 7 7 8 8 9 8 9 8 8 8 11 19 22 23 23 23 23 23 23 23 23 23 23 23 22 20 20 20 20 20 21 21 21 21 21 21 22 21 22 21 21 21 22 22 22 23 23 22 21 19 17 17 18 19 18 15 13
6 5 7 7 6 7 6 6 5 5 5 6 7 6 7 7 8 6 4 5 6 6 5 7 7 6 8 9 8 8 8 8 9 9 9 8 8 8 8 10 17 21 22 24 24 24 24 24 24 24 24 23 24 22 21 22 21 20 19 20 20 20 20 21 22 23 23 23 22 23 23 22 22 22 22 23 23 22 21 20 19 17 17 18 18
6 6 7 7 7 7 7 6 6 5 6 7 7 6 7 7 8 6 5 5 6 6 6 7 8 7 9 8 7 9 8 8 8 9 9 8 8 7 8 8 9 14 19 21 23 24 24 24 24 24 24 24 24 24 24 23 23 23 21 20 20 21 21 21 22 22 23 23 23 23 23 23 23 24 23 23 23 23 22 22 22 21 20 18 17
6 7 7 7 7 7 7 7 5 5 6 6 7 5 6 7 5 6 6 7 7 5 7 9 7 8 9 7 8 8 8 9 8 8 8 8 7 8 8 8 8 8 8 15 20 22 23 24 24 24 24 24 24 24 23 23 22 22 24 23 22 23 23 23 23 23 23 22 22 22 22 22 22 22 22 21 22 22 22 23 23 23 23 22 21
6 7 7 7 8 7 7 6 5 5 7 7 7 7 7 7 5 7 6 6 7 7 8 8 8 9 7 7 8 8 8 9 8 8 9 7 8 8 8 8 8 8 8 8 11 18 21 23 24 24 24 24 24 24 24 23 23 22 23 23 22 21 18 18 21 22 23 23 23 23 23 23 23 23 22 22 21 21 21 21 21 22 23 23 23
7 7 8 7 7 7 6 5 8 6 6 7 7 7 6 7 6 5 8 7 7 7 6 8 8 9 7 8 8 8 8 7 7 8 6 7 8 8 8 8 8 8 8 8 8 10 20 20 22 24 24 24 24 24 24 24 23 23 22 22 21 21 22 22 20 21 23 24 24 24 24 24 25 24 24 23 22 21 21 21 20 22 22 22 22
7 7 8 7 7 7 6 6 6 7 8 6 7 5 5 7 7 6 4 7 9 9 8 8 8 9 9 9 8 8 8 7 7 6 6 9 8 8 8 8 8 8 8 8 8 8 13 20 19 21 22 24 24 24 24 24 24 23 23 22 21 20 20 21 21 21 22 24 24 25 25 24 25 25 25 24 24 23 22 21 21 21 21 21 21
8 7 8 7 7 7 6 6 7 7 8 8 7 6 6 8 9 6 5 7 7 9 9 8 8 8 9 8 7 7 6 7 7 7 8 8 8 8 7 7 8 8 8 8 8 8 8 13 18 18 20 22 23 24 24 24 24 24 24 23 23 22 22 21 21 22 23 24 25 25 25 25 25 25 25 25 25 24 24 23 22 22 22 22 21
8 7 8 7 8 7 7 6 6 8 9 8 8 7 7 6 9 8 8 7 7 6 8 8 9 8 8 7 6 7 6 6 7 8 8 7 7 6 6 8 7 8 8 8 7 8 9 8 8 9 11 21 21 22 23 24 24 24 24 24 23 23 23 24 23 23 24 24 24 24 25 25 25 25 25 25 25 25 25 25 24 23 23 23 23
7 7 8 7 8 7 8 6 7 7 9 9 7 6 7 9 8 9 10 8 8 6 5 9 9 9 7 7 6 6 7 7 8 8 7 7 6 6 7 6 8 8 8 7 8 8 9 9 8 8 8 13 20 19 21 22 23 23 24 24 23 23 23 23 23 23 23 24 25 25 25 25 26 26 25 25 24 24 25 25 25 25 24 24 24
7 7 7 8 7 7 8 7 7 8 8 8 5 6 6 6 6 6 8 9 7 6 4 3 10 7 6 6 7 5 6 8 8 7 7 6 6 7 6 8 8 8 7 6 8 8 8 9 8 8 9 8 10 16 19 21 22 23 24 24 24 23 24 24 24 24 24 25 25 25 25 25 26 26 26 25 25 24 24 24 25 25 26 25 25
6 6 7 7 8 7 8 7 7 8 8 6 6 5 5 5 5 9 6 7 5 5 5 1 4 5 7 3 3 3 3 6 8 6 5 6 6 8 7 8 9 7 7 8 8 8 8 7 7 8 8 8 8 8 9 11 14 22 23 24 24 24 24 24 25 25 25 25 25 25 26 26 25 25 25 25 25 25 25 25 25 25 25 26 26
6 6 7 7 8 8 7 6 7 6 8 8 7 8 6 6 6 9 8 4 6 6 7 3 4 1 2 5 0 0 1 4 3 5 6 5 6 8 7 7 7 6 6 7 7 7 7 7 8 8 8 8 7 8 8 9 13 20 21 23 24 24 24 24 25 25 25 25 25 25 25 25 25 25 25 25 25 25 25 26 26 26 26 25 25
6 6 7 7 7 8 6 7 6 5 7 8 8 7 7 6 5 5 6 7 4 7 7 7 4 3 1 0 1 1 0 2 2 1 3 3 7 6 6 6 6 6 6 7 7 7 7 7 8 7 7 7 7 7 8 8 13 15 16 18 24 24 24 24 24 25 25 25 25 25 25 25 25 26 26 26 26 26 26 27 26 26 26 26 25
6 6 7 8 7 7 7 7 7 6 7 9 8 6 5 5 5 6 6 8 5 3 7 7 8 3 5 3 1 2 0 1 2 1 4 3 5 4 6 8 8 6 6 6 5 6 6 6 6 6 7 7 7 7 8 9 9 10 13 17 23 24 24 24 24 25 25 25 25 25 26 26 26 26 26 26 27 27 27 27 27 27 26 26 26
6 7 7 6 7 7 7 8 8 7 7 7 6 7 7 8 5 5 7 5 8 6 5 5 7 9 7 3 1 2 1 1 2 1 3 1 4 4 6 8 7 8 7 8 9 8 6 7 6 6 6 7 7 7 7 8 9 9 10 15 26 24 24 25 25 25 26 26 25 25 25 26 26 26 27 27 27 27 28 27 27 27 26 26 26
6 6 6 6 7 7 8 8 7 6 5 7 8 7 6 6 5 7 6 4 5 8 7 3 5 8 7 7 9 6 3 2 1 1 2 2 4 5 6 7 6 6 7 6 6 7 7 6 7 6 6 7 8 8 8 9 13 16 21 24 24 24 24 25 25 25 26 26 27 26 26 26 26 26 27 27 28 28 27 27 27 27 27 26 26
6 6 6 6 7 8 7 7 8 6 7 8 8 6 7 6 7 6 6 6 5 8 4 3 6 2 5 7 7 7 7 7 3 1 2 1 4 4 1 8 4 3 4 4 6 6 6 6 6 6 6 7 7 7 8 9 9 10 10 22 22 24 24 24 24 25 25 26 27 26 27 27 27 27 27 27 28 27 27 27 27 27 27 27 26
6 7 6 7 6 7 6 7 8 7 7 7 6 6 7 7 6 8 8 7 6 4 7 4 5 5 4 4 6 6 6 5 3 4 2 0 3 2 6 4 3 1 4 3 4 4 4 4 3 4 5 6 7 7 8 8 8 9 12 21 22 23 24 24 24 24 24 24 25 26 26 27 28 28 28 28 28 27 27 27 27 27 27 27 26
6 6 7 6 6 6 7 9 8 7 7 7 6 7 7 8 7 7 7 9 5 7 7 5 6 4 3 3 4 1 3 4 5 4 3 3 1 3 4 7 10 7 4 8 8 4 3 4 4 4 5 5 6 6 6 7 8 8 12 20 21 23 25 25 24 23 23 23 24 25 25 26 27 28 28 28 28 27 27 27 27 27 27 27 27
6 6 5 5 7 7 8 7 6 5 6 6 6 7 7 8 7 8 8 8 7 7 7 5 5 6 6 6 6 5 3 2 1 3 2 1 3 3 3 2 3 6 5 7 8 5 5 3 4 4 5 6 6 7 8 8 9 13 20 19 21 23 23 23 23 23 23 23 24 25 25 25 26 27 27 27 28 27 27 27 27 27 27 27 28
5 6 6 5 7 7 6 6 6 6 7 6 6 7 7 7 7 7 7 6 6 7 6 7 7 7 7 6 6 6 6 5 2 3 4 2 2 1 2 4 3 4 6 5 4 2 5 4 3 4 4 5 4 4 5 7 9 19 15 18 21 23 23 23 23 23 23 23 24 24 24 25 25 26 26 26 27 27 27 28 28 28 28 28 28
5 7 5 5 6 7 6 7 6 6 6 7 6 7 7 7 7 7 7 6 5 6 7 6 6 7 7 5 5 5 5 3 4 4 3 4 4 3 2 1 2 5 3 2 3 4 1 3 4 3 5 6 5 6 7 7 7 14 19 12 22 21 23 23 23 23 23 24 24 24 24 24 25 25 26 26 26 26 27 27 27 27 28 27 28
8 7 6 5 4 5 6 7 6 7 7 7 7 5 6 7 7 8 7 5 6 7 8 6 6 5 4 6 5 5 4 3 3 4 4 4 3 2 2 3 2 5 3 2 2 4 3 3 3 4 6 7 7 8 8 9 8 16 20 13 14 20 22 23 23 24 24 24 24 24 24 24 24 24 25 26 26 26 26 27 27 27 27 27 27
8 6 5 6 6 6 7 8 7 7 7 7 6 6 6 7 7 7 6 5 6 7 6 6 7 6 5 5 5 5 4 4 5 4 3 3 4 2 2 6 5 2 3 2 2 2 3 3 1 4 5 5 7 8 8 8 10 18 18 11 10 18 21 22 22 24 23 24 24 24 24 24 24 24 25 25 25 26 26 26 26 27 27 27 27
6 7 5 7 8 8 7 8 7 7 6 6 6 6 6 8 7 7 7 3 7 7 5 6 6 5 5 4 6 4 4 4 4 4 4 2 3 2 3 3 2 6 3 4 2 3 1 1 2 2 4 5 6 6 8 10 8 18 15 9 10 11 19 22 23 23 23 23 23 23 24 24 24 24 24 24 25 25 25 26 26 25 26 26 26
7 6 7 6 7 8 8 7 7 6 6 6 7 7 6 7 7 7 7 5 6 6 4 6 5 5 5 5 5 5 3 3 3 4 3 3 2 2 1 4 3 1 3 5 5 1 3 1 0 2 4 7 6 6 7 6 10 13 9 10 11 10 17 23 24 23 23 23 23 23 23 24 24 24 24 24 24 24 25 25 26 26 25 26 27
7 7 7 8 8 8 8 7 6 6 7 6 7 7 7 7 7 6 5 5 6 5 4 5 5 5 5 5 4 5 3 4 4 3 3 2 3 3 3 1 2 3 2 2 7 2 3 3 1 3 5 6 6 7 6 5 11 13 8 9 10 10 21 24 23 23 23 24 24 23 24 24 24 24 24 25 25 25 26 25 25 26 26 26 26
8 9 9 9 8 7 7 7 6 7 6 7 7 7 6 8 6 6 5 5 6 6 3 4 3 5 5 5 4 4 3 3 3 3 2 3 3 3 2 3 3 2 2 1 3 5 4 2 1 3 5 4 6 7 5 5 8 12 9 8 8 16 22 17 22 23 24 24 24 24 24 24 24 25 25 25 25 26 26 26 26 26 26 26 26
8 9 9 9 9 9 7 8 7 6 7 6 7 7 6 6 6 6 5 6 6 6 4 3 3 5 5 5 3 3 2 3 3 3 3 2 2 3 3 4 3 2 2 1 3 12 2 3 5 3 4 7 6 7 7 5 6 12 7 8 11 16 10 9 16 22 23 24 24 24 25 25 25 26 27 26 26 27 26 26 26 26 25 25 26
9 9 10 10 9 9 9 8 8 7 8 7 6 6 6 6 5 6 5 6 7 5 5 4 3 4 4 5 3 2 2 3 3 3 3 2 3 3 3 3 3 2 3 1 3 10 10 1 3 6 6 8 7 5 8 8 8 7 8 7 9 9 9 9 9 16 21 24 25 25 25 25 26 26 26 26 27 27 26 26 25 25 25 25 26
8 10 10 9 9 9 8 7 7 7 7 7 6 6 6 7 6 4 6 6 6 5 4 4 3 3 3 4 3 3 2 3 3 3 2 2 2 2 1 3 1 2 2 1 3 5 13 11 6 4 5 5 9 5 8 11 11 9 10 9 7 7 8 9 9 9 19 22 25 25 25 26 27 27 27 26 26 26 26 26 25 25 25 25 26
4 6 8 8 9 9 8 8 8 7 7 7 6 5 4 6 7 5 5 6 6 6 5 4 3 3 3 3 3 3 2 3 2 1 1 1 0 1 1 0 1 0 1 2 2 6 9 13 7 8 8 8 7 9 9 9 9 9 10 10 9 8 7 8 10 9 16 23 26 26 26 27 27 27 27 27 26 25 25 26 26 25 25 26 27
7 5 4 6 7 8 9 8 8 8 7 7 6 5 5 6 7 7 5 5 5 5 5 4 3 3 3 3 2 2 2 2 1 1 0 0 0 1 1 1 0 2 2 2 4 5 7 11 10 8 9 10 8 7 8 8 10 10 9 10 9 9 9 8 9 9 13 24 26 27 27 27 27 26 26 26 25 25 26 26 26 26 26 27 27
7 8 7 6 7 8 8 9 9 8 8 9 8 7 6 4 6 6 6 5 5 5 5 4 4 3 3 3 2 1 1 2 0 1 1 0 1 1 1 2 1 2 2 3 4 4 6 9 11 7 7 7 8 8 6 11 12 11 10 9 10 11 10 8 8 9 17 24 25 25 24 25 25 24 24 25 25 26 27 27 27 28 28 28 28
8 8 9 7 7 7 7 8 8 8 8 8 9 8 7 6 6 6 6 5 5 5 5 4 3 3 3 2 1 2 2 1 1 1 1 1 1 1 2 2 2 2 3 3 4 5 5 7 8 11 8 9 9 9 9 8 11 12 13 13 11 9 9 10 11 10 9 9 9 11 14 17 20 24 24 24 26 28 28 29 28 28 28 27 27
9 9 8 7 5 6 7 7 7 7 8 8 8 7 8 6 6 6 6 5 5 5 4 4 3 3 3 2 1 2 2 2 1 2 2 2 2 2 2 2 2 2 3 4 3 4 6 8 8 8 10 8 9 12 11 10 11 11 11 12 15 12 8 11 16 12 9 11 15 19 18 19 21 19 24 29 30 30 30 29 28 27 25 26 26
9 9 10 9 7 6 6 6 6 6 7 6 5 5 6 6 6 6 6 6 5 4 4 3 2 2 2 2 2 2 2 1 2 3 3 3 2 2 2 1 2 2 3 3 3 4 6 7 7 9 8 10 9 8 10 11 10 9 10 12 15 17 17 13 10 14 15 13 13 12 13 15 16 21 25 25 27 27 27 24 24 24 24 24 24
7 8 7 8 8 7 6 6 6 5 5 5 5 6 7 7 6 6 5 5 5 5 3 2 1 2 1 1 1 1 2 4 5 4 4 3 3 1 2 1 2 2 2 3 3 5 6 7 8 7 9 9 8 10 11 10 12 14 14 12 13 15 13 16 15 12 12 14 14 12 10 10 13 12 12 12 12 19 17 22 19 21 22 22 23
7 7 7 7 7 8 8 5 5 5 5 4 7 12 10 9 7 6 6 5 4 3 3 3 2 2 2 1 1 3 3 3 3 4 4 4 4 1 2 3 3 2 3 3 5 6 7 7 7 7 8 8 10 10 10 13 14 14 14 13 14 14 15 15 14 7 10 11 12 15 11 8 10 12 10 11 11 12 10 10 9 14 20 25 26
7 7 7 8 7 7 8 10 9 6 6 6 13 13 13 13 8 7 6 5 4 3 3 4 4 3 2 2 2 2 2 2 2 4 3 4 4 5 5 5 4 3 3 5 6 6 6 7 7 7 7 10 11 11 12 13 12 11 12 12 13 14 13 13 16 14 6 13 15 14 15 12 11 12 11 10 10 10 10 10 18 22 26 26 24
6 5 7 7 7 7 7 7 7 6 6 9 15 14 14 14 11 8 6 4 3 4 4 5 5 4 3 3 3 3 2 2 3 2 2 4 4 4 5 5 6 8 9 6 6 6 6 7 6 6 8 10 12 12 11 10 11 12 12 11 12 12 14 13 12 14 13 14 15 15 15 12 12 12 12 12 13 11 12 19 27 27 26 24 24
6 7 9 8 8 7 7 8 8 7 7 13 16 15 14 14 14 10 5 5 4 4 5 5 4 4 4 4 3 2 2 5 2 0 1 2 5 6 5 7 9 10 10 11 13 9 6 6 7 8 7 11 11 10 9 11 13 13 13 12 11 12 11 12 13 14 16 14 14 13 15 14 13 13 14 14 14 13 14 18 25 25 26 26 26
7 6 6 7 6 7 8 8 7 6 8 12 16 15 15 15 14 11 6 6 5 6 6 6 5 5 4 4 3 3 2 2 3 3 2 3 3 4 5 5 6 9 12 15 15 13 10 6 6 8 8 6 7 9 10 11 13 12 12 12 12 11 12 13 15 15 13 12 12 13 13 11 11 12 13 13 12 13 12 18 25 26 25 25 24
9 10 9 10 9 8 7 7 7 8 8 14 16 15 15 16 15 12 7 6 6 6 6 6 6 5 4 4 3 4 3 3 4 4 4 4 4 5 6 7 6 7 7 8 7 5 5 4 5 5 5 6 7 9 10 10 10 10 10 11 11 10 11 11 10 9 9 8 11 11 11 12 10 12 13 13 14 14 12 17 24 25 24 24 24
5 4 4 5 8 8 8 8 7 8 8 16 16 16 16 15 16 7 7 6 6 6 6 7 6 3 3 4 4 4 4 4 7 8 6 5 6 7 8 8 6 6 5 4 6 8 8 8 5 4 5 8 13 11 11 10 9 8 7 6 5 5 8 9 9 8 7 7 9 10 10 12 10 12 14 14 14 15 14 11 18 22 22 24 24
9 9 9 9 8 9 10 10 10 9 8 14 17 16 16 16 12 6 7 6 6 6 6 6 5 4 4 5 5 5 5 5 8 8 8 8 5 8 7 5 3 1 1 3 5 6 7 7 8 11 13 15 15 15 13 14 10 9 4 6 5 5 8 9 10 9 10 8 7 7 9 12 10 12 14 14 14 15 14 11 8 16 23 24 23
11 11 9 8 8 8 10 11 11 11 10 12 17 16 16 17 10 7 6 6 6 6 6 6 4 5 5 11 9 6 6 6 9 9 9 7 7 7 5 2 1 2 3 1 0 1 3 5 8 10 11 12 12 12 12 12 12 9 4 5 6 6 7 7 10 9 11 8 5 8 10 10 13 11 12 14 14 8 10 9 11 14 18 18 21
10 8 8 8 8 7 7 8 7 9 7 10 16 17 17 17 11 7 7 6 7 7 5 6 5 5 5 7 13 10 8 8 11 10 11 10 7 4 3 2 3 3 4 2 1 1 2 4 5 5 6 7 7 5 7 13 12 9 6 5 5 5 7 8 8 9 10 6 5 11 11 11 13 11 11 13 13 10 2 9 12 12 12 12 12
Wind_Direction
85 84 80 69 64 67 71 54 63 44 49 42 59 76 79 72 64 62 65 64 60 51 55 50 56 55 70 70 66 64 65 62 59 55 51 49 44 39 39 40 41 41 41 40 39 37 36 34 33 32 31 29 29 27 26 25 26 26 24 24 25 25 24 24 22 21 20 18 14 13 11 7 358 351 346 341 336 336 340 343 342 340 338 336 336
114 108 103 93 80 74 78 78 69 69 83 73 63 78 80 79 74 67 72 70 67 54 63 59 56 57 67 77 68 68 74 71 64 58 57 51 48 44 39 41 40 41 40 40 39 38 36 36 34 32 31 30 29 28 26 26 25 25 25 23 23 23 23 22 22 21 20 18 16 13 11 9 7 5 2 353 345 339 335 331 333 333 330 329 329
99 108 98 93 84 75 67 68 66 57 75 83 68 81 80 73 73 64 67 75 73 59 65 65 62 66 72 76 75 72 69 69 69 62 57 52 50 44 33 36 39 38 38 39 38 38 37 36 36 35 34 32 30 30 28 26 26 24 23 22 21 22 21 20 20 20 19 18 16 15 13 11 8 5 2 359 357 352 347 343 340 338 329 321 321
100 96 95 94 88 79 69 67 65 56 60 73 73 70 80 82 76 77 75 78 76 63 57 74 69 76 80 73 71 72 68 65 66 62 59 54 48 42 39 33 32 36 35 34 36 36 36 36 34 34 34 32 31 30 31 30 28 24 23 24 25 24 22 22 23 21 20 19 17 16 14 12 9 6 3 1 358 355 352 350 346 340 336 329 325
81 83 87 89 89 88 77 68 65 67 72 73 76 75 79 77 73 76 66 67 67 65 67 68 78 72 75 72 73 70 71 69 65 62 58 53 47 42 41 35 32 30 30 32 30 33 34 34 33 32 32 31 30 30 30 31 29 26 24 23 26 27 26 23 22 20 17 16 15 13 10 8 6 5 4 3 1 357 354 351 349 346 342 338 329
76 79 80 82 79 78 84 74 66 66 72 68 67 56 72 73 73 73 63 66 69 62 82 79 72 71 74 76 71 70 70 70 63 63 59 54 46 46 38 36 33 31 25 27 28 28 31 33 32 31 30 30 29 29 28 27 27 25 24 24 30 29 28 25 23 22 20 18 16 14 11 7 4 2 359 357 355 353 352 351 351 349 345 340 336
66 80 77 85 84 81 74 78 80 75 78 72 77 60 63 66 58 79 73 70 70 66 80 84 83 76 74 78 75 72 65 68 64 64 57 52 49 44 40 35 29 30 26 25 20 22 26 28 31 29 28 28 29 28 26 26 25 24 22 21 23 23 16 20 21 20 18 17 15 12 9 6 3 1 359 356 354 352 349 348 346 344 344 345 342
74 79 86 82 89 84 78 82 79 69 68 67 71 69 70 71 44 56 94 68 82 70 73 87 81 82 76 73 75 71 69 63 63 62 57 55 48 43 39 35 31 29 27 24 22 18 22 25 27 26 25 26 27 26 24 22 21 21 19 17 16 18 15 14 15 16 15 12 11 8 7 4 2 359 356 354 352 350 348 345 343 342 342 338 336
77 81 92 90 90 88 78 77 81 84 76 72 68 64 74 82 58 42 66 101 89 91 80 83 85 81 78 73 70 76 71 65 59 62 57 55 49 43 39 33 31 30 26 23 22 17 16 23 24 24 21 23 25 25 24 20 18 18 17 15 14 12 13 10 9 10 10 8 5 4 2 1 359 357 355 352 350 347 345 344 342 340 339 336 333
78 84 88 88 88 90 86 78 84 85 86 76 72 68 66 78 82 52 59 94 91 95 94 89 86 84 76 74 71 70 68 63 59 55 53 50 46 42 35 33 33 28 25 24 22 20 21 17 20 21 19 20 23 24 23 20 15 15 15 14 14 13 11 8 7 7 5 3 1 359 358 356 356 355 352 351 348 346 343 340 339 338 338 336 335
86 89 97 96 91 89 87 80 87 88 81 77 71 66 72 73 93 88 67 63 86 82 98 97 90 83 80 70 71 67 67 64 60 57 51 49 46 38 38 31 31 26 24 24 19 23 22 21 20 18 14 18 22 23 23 21 16 14 14 12 12 12 10 7 6 5 0 359 357 355 355 354 353 352 351 349 347 345 343 341 338 336 335 334 334
90 90 92 94 95 90 87 76 77 85 86 81 73 70 82 86 72 92 90 71 53 53 64 94 83 80 81 68 60 69 66 66 62 56 52 46 42 40 38 25 32 23 24 17 23 22 23 22 23 19 18 15 21 21 22 22 16 16 16 11 9 9 7 5 4 2 359 355 354 353 353 352 351 350 348 347 345 343 342 340 338 336 334 332 331
86 94 96 96 89 88 87 76 76 80 82 83 82 80 69 80 90 57 81 85 46 12 10 42 105 75 62 66 56 37 65 69 63 56 51 43 40 45 30 32 24 24 14 17 24 22 23 21 20 21 19 19 15 17 20 19 15 15 15 11 6 5 3 1 0 358 356 354 352 352 351 350 349 347 346 344 343 342 340 339 337 335 333 331 329
84 91 93 95 99 88 82 82 80 80 82 83 75 67 62 59 88 75 35 78 57 9 342 52 40 127 123 90 39 11 52 64 65 48 48 43 43 44 33 32 22 14 8 19 21 20 21 19 21 22 22 23 20 19 17 15 11 13 14 11 5 2 360 357 357 355 353 352 351 350 348 347 346 345 343 342 341 340 339 338 336 333 331 328 326
70 75 87 82 86 89 82 79 73 90 94 75 70 64 56 63 61 107 98 61 85 31 17 24 140 112 106 91 51 87 302 11 21 46 33 38 41 45 34 30 19 13 10 22 18 14 15 16 22 22 23 24 22 21 18 14 12 12 10 6 2 0 356 353 352 351 350 350 350 348 346 346 344 343 341 340 340 338 337 335 333 330 327 325 324
62 69 76 74 79 85 84 76 72 63 86 87 71 64 56 50 61 62 105 82 43 37 22 28 81 118 89 75 183 115 17 340 5 303 2 28 47 43 34 27 15 7 18 29 11 11 13 13 21 19 21 23 25 22 18 15 9 8 3 355 359 358 354 351 350 350 349 349 348 347 346 344 343 342 340 339 337 336 333 331 329 327 325 323 322
67 70 81 84 80 84 88 85 81 66 76 82 76 74 66 65 60 71 53 116 89 97 35 33 49 23 147 109 36 35 202 249 32 294 356 6 5 29 37 25 12 9 14 14 19 23 13 15 18 19 21 23 23 21 20 12 13 3 359 355 357 359 356 354 353 351 350 349 348 345 344 342 340 338 337 335 334 332 330 328 325 324 323 322 320
71 76 78 86 88 88 90 88 80 74 73 85 90 76 59 61 40 77 75 46 118 94 70 36 57 45 50 83 124 153 179 258 88 299 326 85 331 20 38 21 5 6 10 11 9 359 11 8 15 20 22 26 22 23 20 15 13 8 3 354 358 358 357 355 353 350 348 346 344 342 341 338 337 335 334 333 330 328 327 325 324 323 322 320 319
70 75 83 88 90 84 83 84 85 83 84 86 76 73 68 59 47 62 56 63 76 94 94 55 34 38 36 56 61 53 85 112 98 96 3 320 22 6 354 9 1 1 3 7 359 0 355 5 5 15 21 25 23 20 19 14 14 11 1 357 357 356 354 352 350 346 344 342 340 339 338 336 334 334 332 331 329 327 325 324 323 322 320 319 318
88 80 80 81 86 83 86 87 87 80 81 77 83 82 84 67 69 76 71 58 74 110 102 20 102 26 19 51 54 47 46 57 79 129 144 278 308 336 337 342 347 337 345 353 1 355 352 356 4 12 23 23 25 24 20 17 17 3 354 354 354 352 351 349 346 343 341 339 338 337 335 334 334 333 331 330 329 327 325 324 322 320 320 318 318
71 81 73 79 82 95 95 92 87 80 80 82 76 76 81 87 77 70 73 63 60 80 94 72 85 132 118 66 61 71 62 67 44 59 109 120 291 355 323 316 300 274 340 338 352 6 1 348 6 26 30 26 24 24 20 18 10 0 353 354 352 350 348 345 342 339 338 336 336 335 334 333 333 332 331 329 327 326 324 322 320 320 319 318 316
71 72 81 78 89 90 88 86 86 87 86 95 98 87 81 77 73 79 81 81 67 75 86 88 78 68 71 128 88 46 41 33 33 38 34 75 120 314 337 350 350 322 346 350 350 11 9 354 18 33 36 39 25 20 19 17 8 354 352 352 350 347 344 341 339 338 336 335 334 333 332 332 332 331 329 328 326 324 322 320 319 318 317 315 314
91 79 79 90 85 79 86 87 89 93 97 92 85 86 80 82 80 77 71 82 79 85 83 75 88 73 60 67 74 78 123 115 103 30 97 61 23 336 316 309 266 305 310 336 329 336 350 13 61 41 48 30 23 17 14 9 2 352 353 351 348 344 341 339 337 336 334 333 333 332 331 330 329 328 327 326 325 323 321 320 320 319 318 317 316
99 99 89 86 93 89 91 97 97 98 88 91 86 88 87 86 81 81 81 76 80 82 81 80 75 76 63 63 68 73 67 99 144 131 116 156 131 268 286 308 310 232 282 310 288 325 345 6 40 71 49 43 28 20 10 10 356 350 350 349 345 341 339 338 337 334 333 332 331 331 330 329 328 327 326 325 323 322 322 321 320 319 317 317 317
123 113 113 112 116 116 114 110 104 96 102 93 88 89 92 90 89 84 81 78 79 88 88 82 86 91 99 73 87 78 81 65 104 119 88 116 123 57 274 200 243 299 293 348 315 332 70 5 61 42 49 23 15 13 9 5 356 347 347 346 343 339 337 336 334 332 332 332 331 330 329 328 327 326 325 323 323 323 321 319 318 319 319 318 318
144 138 144 128 113 118 115 104 101 101 97 94 94 93 95 95 93 90 86 86 85 85 88 89 84 92 97 97 84 87 84 81 98 94 112 109 74 87 291 304 212 274 285 343 297 24 316 350 40 54 37 23 11 8 7 353 350 344 345 346 338 336 334 333 332 331 331 331 330 329 328 328 326 325 323 323 322 321 319 320 319 319 320 319 318
144 143 139 133 128 119 111 104 100 99 100 101 100 99 99 95 89 92 84 80 83 87 86 93 96 96 91 99 100 81 76 78 80 75 86 87 132 168 107 9 342 281 306 302 314 248 228 293 4 43 53 34 14 10 355 350 342 340 344 343 333 332 332 330 329 331 331 330 329 328 328 327 325 323 323 322 320 319 319 319 318 318 318 317 315
135 138 148 138 129 116 103 102 103 103 104 110 111 105 102 99 92 90 88 73 92 86 92 92 95 96 99 97 87 81 80 78 75 79 76 89 104 112 103 105 60 329 302 305 312 294 128 12 325 99 45 39 27 6 349 344 340 338 342 337 331 326 328 327 330 330 330 328 327 327 326 324 322 322 321 319 318 318 317 316 315 314 313 312 312
141 145 138 129 121 117 113 112 109 110 109 108 107 102 99 97 103 102 99 96 92 97 98 99 97 98 90 90 98 100 88 79 74 78 79 73 77 81 111 141 150 130 321 320 290 217 305 86 238 291 50 23 7 358 344 340 334 336 336 332 325 322 321 327 329 328 327 326 325 325 323 322 321 320 319 318 317 316 314 314 313 312 310 310 311
147 145 136 127 119 116 116 116 117 115 116 111 106 105 103 97 102 99 112 111 103 92 94 103 100 98 99 87 89 90 85 81 81 73 75 80 74 67 73 26 143 141 212 301 292 227 256 326 131 281 354 5 357 337 336 330 328 332 329 324 321 316 321 327 325 324 323 324 324 323 321 320 319 318 317 316 314 313 312 313 313 311 309 309 312
147 143 135 128 125 120 122 125 127 125 119 114 113 109 110 112 110 113 114 112 108 103 94 98 107 105 102 96 90 92 91 92 85 67 62 67 54 63 52 64 38 124 159 156 315 289 130 255 288 13 325 354 340 321 317 318 321 328 323 316 313 316 322 318 319 320 320 321 322 321 320 319 317 315 315 314 313 312 313 312 311 310 311 313 313
151 143 136 135 135 133 136 137 134 131 122 116 115 113 110 113 123 119 125 119 109 107 100 90 101 103 102 98 99 104 102 93 81 75 63 44 63 55 52 71 59 69 96 126 229 278 317 319 307 315 339 329 327 314 316 315 315 319 310 311 309 313 311 306 309 313 315 317 318 319 319 317 316 315 314 313 312 312 311 311 311 310 311 312 314
152 145 142 141 141 141 142 142 139 135 127 123 118 119 118 120 116 123 125 117 112 110 110 97 93 99 104 106 106 102 108 92 86 76 57 51 50 41 68 73 58 40 76 34 277 288 299 140 11 322 333 321 317 319 316 318 318 314 311 302 301 303 303 300 300 301 307 311 315 316 315 315 316 316 315 314 313 311 310 312 311 311 312 313 315
156 148 147 145 141 141 137 132 129 123 121 124 122 118 125 124 122 123 122 118 115 119 112 110 102 105 114 109 100 92 92 89 87 56 82 47 64 50 30 115 74 88 339 97 281 278 294 309 320 320 316 319 311 326 325 322 319 317 313 310 298 292 297 296 295 293 298 306 311 311 312 313 315 315 315 314 313 313 313 310 310 310 311 314 316
142 142 145 142 141 136 132 133 131 128 130 125 119 118 132 135 131 126 126 128 132 133 125 122 120 120 105 105 98 85 75 68 70 64 94 82 106 163 261 205 135 272 240 251 266 285 294 299 320 326 328 323 319 322 322 313 305 306 307 309 309 302 290 288 290 289 295 304 309 310 311 312 313 312 312 312 312 311 310 310 310 309 310 314 316
139 126 123 131 132 135 135 138 137 135 131 126 126 136 147 144 135 135 135 132 133 132 129 127 123 114 121 100 96 92 89 87 89 113 210 167 190 229 204 273 182 236 255 221 249 266 288 298 313 327 318 319 317 316 310 300 307 310 306 304 298 296 292 287 286 292 294 304 310 310 311 311 311 310 310 310 309 309 310 310 309 308 310 313 315
145 140 136 138 142 147 150 150 145 144 143 140 140 144 144 140 138 139 140 136 131 127 125 124 123 122 113 126 127 109 112 117 285 152 222 205 252 187 240 259 238 254 246 252 250 257 278 286 297 305 309 303 305 307 312 318 317 313 309 300 302 303 302 292 287 293 298 308 310 310 311 311 311 310 308 309 309 310 310 310 309 309 310 312 314
148 153 148 154 159 157 154 150 145 143 142 143 136 141 143 140 142 140 135 133 129 120 115 116 124 131 132 130 148 145 147 151 196 225 214 238 262 245 250 260 255 251 244 257 262 259 266 282 297 310 319 320 317 314 317 311 311 313 313 310 310 312 314 312 308 307 304 302 304 304 309 311 309 310 312 311 309 308 308 308 308 308 310 312 312
157 155 157 151 160 157 146 121 147 150 145 146 141 140 139 145 149 141 133 128 121 115 118 127 129 132 132 139 166 173 169 180 186 214 231 257 224 238 236 229 255 237 257 260 271 289 297 301 297 294 302 304 311 312 317 310 303 302 305 320 322 320 313 316 316 317 315 305 302 306 311 314 314 314 312 311 310 309 308 307 307 308 309 309 309
165 163 162 160 155 150 145 145 149 149 144 143 131 131 140 150 146 135 135 134 126 117 115 117 135 143 150 168 176 204 182 204 193 236 220 224 229 208 248 205 246 239 256 269 286 290 290 286 289 295 296 303 304 293 301 307 305 317 333 326 318 321 321 323 321 323 321 311 312 316 320 322 320 315 312 311 309 307 307 308 308 308 309 308 305
168 165 154 146 143 140 138 122 137 137 134 146 153 158 151 152 141 135 135 130 128 126 119 132 150 157 179 187 198 211 226 232 248 255 244 238 181 185 282 191 215 237 257 282 279 280 277 283 285 281 290 291 292 298 307 322 332 326 325 324 316 320 324 317 314 318 313 314 313 320 326 326 314 310 309 304 304 310 308 308 307 304 303 303 306
160 152 144 140 144 141 142 125 128 140 157 165 181 174 166 149 141 134 123 123 126 130 145 167 190 195 193 200 223 236 247 263 285 291 294 300 296 271 201 202 218 221 251 254 261 263 276 283 284 289 291 291 306 316 323 325 321 320 323 329 322 321 317 312 306 319 327 320 325 318 318 315 304 301 298 299 301 307 300 301 293 302 309 313 312
155 150 147 148 152 152 146 138 155 171 171 174 187 176 163 148 137 132 129 130 127 142 178 187 194 209 217 201 194 237 250 303 309 290 295 304 307 295 294 291 279 243 218 257 264 262 267 274 288 289 290 306 320 329 322 319 323 330 326 322 320 320 322 324 319 318 344 340 325 318 312 312 304 300 303 301 303 304 303 296 311 319 316 311 311
156 150 152 156 154 159 163 165 172 179 160 193 189 179 165 152 139 133 129 137 152 180 195 205 205 201 205 205 203 186 178 213 228 240 299 301 294 289 289 286 283 279 276 267 276 286 287 287 292 309 322 316 316 319 321 332 328 323 322 321 319 320 318 316 312 311 323 335 319 307 302 314 320 316 321 324 320 316 318 321 320 315 312 316 318
151 163 167 160 170 172 173 172 181 181 181 198 192 182 169 159 150 136 141 143 168 197 202 206 208 205 200 200 197 192 202 248 268 233 217 262 291 292 282 283 282 281 283 291 295 294 302 313 321 321 320 314 313 319 331 327 326 317 317 315 318 316 314 311 311 313 318 325 315 316 314 318 327 328 320 319 317 318 318 316 313 315 318 318 317
169 170 167 168 171 182 185 183 181 186 191 205 194 183 175 167 162 150 150 159 178 198 208 210 214 211 203 200 202 221 224 224 220 223 217 223 241 267 271 266 259 270 277 281 287 294 302 313 319 305 319 337 321 317 322 323 317 312 314 312 314 316 319 311 312 310 314 330 335 325 307 313 330 328 316 312 316 313 311 311 316 318 316 317 317
176 179 179 181 190 186 187 183 187 192 198 205 193 187 182 179 179 167 156 161 174 200 211 215 215 213 194 189 196 220 226 229 219 216 209 224 232 237 243 250 252 251 246 257 262 266 299 312 299 321 327 325 314 312 312 314 312 308 304 307 324 320 313 316 305 307 316 332 328 319 302 312 333 320 311 315 316 313 312 315 314 314 316 317 318
186 171 187 192 191 190 189 188 188 200 202 203 195 191 186 186 187 162 158 170 173 195 207 215 214 199 197 201 209 223 231 230 248 251 247 227 223 233 241 250 239 236 233 236 286 308 311 304 312 323 317 309 310 310 313 315 315 310 316 325 316 317 322 314 314 318 309 320 318 311 307 309 321 314 313 314 314 311 312 306 310 315 319 321 321
183 190 195 196 194 192 193 192 197 203 197 203 196 192 187 186 184 144 166 167 182 194 201 209 217 207 211 210 210 213 222 231 248 256 255 260 257 255 254 241 235 171 240 285 308 314 315 312 317 320 317 317 313 313 317 321 317 326 342 328 318 323 319 318 313 319 314 324 311 311 310 303 318 323 316 315 317 310 308 309 308 323 324 323 325
193 200 193 193 199 199 197 201 201 201 197 200 196 191 189 189 179 161 168 174 189 200 206 217 212 224 211 223 221 208 219 229 248 253 256 260 261 256 242 200 207 228 256 222 24 310 318 335 328 325 318 312 317 320 321 321 324 333 345 316 310 319 309 309 307 314 310 313 296 327 313 303 317 324 320 314 307 295 302 310 326 322 322 323 322
200 190 189 196 200 202 205 207 215 220 199 196 196 192 190 191 180 156 170 175 193 199 191 214 221 207 228 232 232 224 211 224 244 250 255 253 248 231 157 170 245 242 249 185 191 219 292 315 317 330 312 315 315 306 301 316 324 331 316 307 316 319 310 308 308 310 313 304 315 334 315 313 325 324 333 324 318 308 274 326 322 323 324 320 322